Flag for Peru

Past Weather in Cuzco, Cusco, Peru — January 2018

Now
72 °F

Clear.


Feels Like: 74 °F
Forecast: N/A
Wind: 8 mph from Northwest

Location: Cuzco Airport

Current Time: Jul 4, 2020 at 5:52:46 pm

Latest Report: Jul 4, 2020 at 3:30 pm


Visibility: N/A

Pressure: 30.27 "Hg (20.47 "Hg at 3379m altitude)

Humidity: 16%

Dew Point: 23 °F

Location of CuzcoLocation

January 2018 Weather in Cuzco — Graph

°F

High & Low Weather Summary for January 2018

 TemperatureHumidityPressure
High72 °F (Jan 26, 3:00 pm)93% (Jan 25, 5:00 am)30.60 "Hg (Jan 25, 5:00 am)
Low43 °F (Jan 20, 7:00 am)20% (Jan 28, 2:30 pm)30.12 "Hg (Jan 3, 12:30 pm)
Average56 °F62%30.40 "Hg
* Reported Jan 1 12:00 am — Jan 31 11:00 pm, Cuzco. Weather by CustomWeather, © 2020

Note: Actual official high and low records may vary slightly from our data, if they occured in-between our weather recording intervals... More about our weather records

Cuzco Weather History for January 1, 2018

Scroll right to see more
 ConditionsComfort  
Time TempWeatherWind HumidityBarometerVisibility
12:00 am
Mon, Jan 1
52 °FPartly cloudy.3 mph77%30.42 "Hg3 mi
1:00 am50 °FMostly cloudy.3 mph82%30.42 "Hg1 mi
2:00 am52 °FPartly cloudy.2 mph77%30.42 "Hg2 mi
3:00 am48 °FPartly cloudy.2 mph82%30.39 "Hg3 mi
4:00 am50 °FPartly cloudy.3 mph82%30.42 "Hg2 mi
5:00 am50 °FMostly cloudy.2 mph76%30.42 "Hg3 mi
5:30 am50 °FBroken clouds.No wind76%30.42 "Hg4 mi
6:00 am50 °FBroken clouds.No wind76%30.45 "Hg4 mi
6:30 am50 °FMore clouds than sun.No wind82%30.45 "Hg5 mi
7:00 am54 °FMore clouds than sun.No wind72%30.45 "Hg6 mi
7:30 am55 °FBroken clouds.2 mph67%30.48 "Hg6 mi
8:00 am55 °FBroken clouds.2 mph63%30.48 "Hg6 mi
8:30 am59 °FBroken clouds.3 mph55%30.48 "HgN/A
9:30 am61 °FBroken clouds.3 mph48%30.48 "HgN/A
10:00 am59 °FBroken clouds.6 mph51%30.48 "HgN/A
10:30 am57 °FLight rain. Broken clouds.6 mph55%30.45 "HgN/A
11:00 am59 °FBroken clouds.3 mph55%30.45 "HgN/A
11:30 am64 °FBroken clouds.2 mph37%30.42 "HgN/A
12:00 pm66 °FBroken clouds.5 mph35%30.39 "HgN/A
12:30 pm61 °FPartly sunny.8 mph45%30.39 "HgN/A
1:00 pm63 °FPartly sunny.5 mph45%30.39 "HgN/A
1:30 pm63 °FPartly sunny.12 mph45%30.36 "HgN/A
2:00 pm63 °FPartly sunny.10 mph45%30.33 "HgN/A
2:30 pm63 °FScattered showers. Partly sunny.9 mph45%30.33 "HgN/A
3:00 pm61 °FThunderstorms. Broken clouds.9 mph48%30.33 "HgN/A
3:30 pm54 °FScattered showers. Broken clouds.10 mph72%30.33 "HgN/A
4:00 pm54 °FBroken clouds.10 mph72%30.33 "HgN/A
4:30 pm57 °FBroken clouds.5 mph63%30.33 "HgN/A
5:00 pm57 °FBroken clouds.5 mph63%30.33 "HgN/A
5:30 pm57 °FPartly sunny.No wind63%30.33 "HgN/A
6:00 pm55 °FPartly sunny.2 mph67%30.33 "HgN/A
6:30 pm55 °FPartly cloudy.3 mph72%30.33 "HgN/A
7:00 pm54 °FPartly cloudy.5 mph77%30.36 "HgN/A
8:00 pm55 °FPartly cloudy.7 mph67%30.39 "HgN/A
9:00 pm55 °FPartly cloudy.5 mph72%30.42 "HgN/A
11:00 pm54 °FPartly cloudy.12 mph72%30.45 "HgN/A
Weather by CustomWeather, © 2020

See weather overview